Project,Study,Ord_Occ,Event_Num,Cast_ID,Date_Time_UTC,Date_Time_PST,Lat_Dec,Lon_Dec,Sta_ID,Line,Sta,Depth,Pressure,PrQ,Temp1,Temp1Q,Temp2,Temp2Q,TempAve,Salt1,Salt1Q,Salt1_Corr,Salt2,Salt2Q,Salt2_Corr,SaltAve_Corr,Ox1,Ox1Q,Ox1_CruiseCorr,Ox1_StaCorr,Ox2,Ox2Q,Ox2_CruiseCorr,Ox2_StaCorr,OxAve_StaCorr,Ox1uM,Ox1uM_CruiseCorr,Ox1uM_StaCorr,Ox2uM,Ox2uM_CruiseCorr,Ox2uM_StaCorr,OxAveuM_StaCorr,FluorV,FluorQ,EstChl_CruiseCorr,EstChl_StaCorr,ISUSV,ISUSQ,EstNO3_CruiseCorr,EstNO3_StaCorr,SigThetaTS1,SigThetaTS1Q,SigThetaTS2,SigThetaTS2Q,BAT,XMiss,TransQ,pH,pHQ,SPAR,SPARQ,PAR,PARQ,PoT1,PoT2,DynHt,SVA,OxSat1,OxSat2,BTL_Depth,BTL_Temp,SaltB,OxB,OxBuM,Chl-a,Phaeo,NO3,NO2,NH4,PO4,SIL
CalCOFI,2101RL,007,,2101_007d,17-Jan-2021 03:01:24,16-Jan-2021 19:01:24,32.51164,-118.21048,093.3 040.0,093.3,040.0,3.000,3.021,,14.9350,,14.9386,,14.9368,33.3687,,33.3745,33.3610,,33.3630,33.3688,5.7267,,5.9935,4.4949,5.6318,,5.9795,4.4707,4.4828,249.581,261.5216,196.0755,245.446,277.9904,195.0235,195.5495,0.0966,,0.5434,0.2556, ,, , ,24.7286,,24.7219,,0.7945,81.9866,,,,2.3035E+00,,1.4228E-01,,14.9345,14.9381,-0.0005,320.699,99.467,97.821,3,,33.3620,-0.047,-2.06,0.645,0.256,,,,,
CalCOFI,2101RL,007,,2101_007d,17-Jan-2021 03:01:34,16-Jan-2021 19:01:34,32.51164,-118.21042,093.3 040.0,093.3,040.0,4.000,4.028,,14.9026,,14.9053,,14.9040,33.3680,,33.3738,33.3604,,33.3624,33.3681,5.7322,,5.9992,4.4985,5.6772,,6.0278,4.5015,4.5000,249.820,261.7718,196.2341,247.426,278.2562,196.3692,196.3017,0.0957,,0.5360,0.2533, ,, , ,24.7351,,24.7287,,0.7947,81.9818,,,,1.8556E+00,,1.0804E-01,,14.9020,14.9047,0.0035,320.110,99.498,98.544,,,,,,,,,,,,
CalCOFI,2101RL,007,,2101_007d,17-Jan-2021 03:01:37,16-Jan-2021 19:01:37,32.51166,-118.21040,093.3 040.0,093.3,040.0,5.000,5.035,,14.8989,,14.9076,,14.9033,33.3682,,33.3740,33.3604,,33.3624,33.3682,5.7298,,5.9967,4.4969,5.6856,,6.0367,4.5072,4.5021,249.718,261.6650,196.1664,247.791,278.1427,196.6172,196.3918,0.0928,,0.5122,0.2461, ,, , ,24.7361,,24.7282,,0.7967,81.9410,,,,1.8474E+00,,9.4284E-02,,14.8981,14.9068,0.0068,320.046,99.450,98.694,,,,,,,,,,,,
CalCOFI,2101RL,007,,2101_007d,17-Jan-2021 03:01:39,16-Jan-2021 19:01:39,32.51166,-118.21040,093.3 040.0,093.3,040.0,6.000,6.042,,14.9128,,14.9180,,14.9154,33.3682,,33.3740,33.3607,,33.3627,33.3684,5.7302,,5.9971,4.4972,5.6872,,6.0384,4.5083,4.5028,249.734,261.6818,196.1771,247.861,278.1605,196.6648,196.4210,0.0949,,0.5294,0.2513, ,, , ,24.7332,,24.7263,,0.7948,81.9804,,,,1.8474E+00,,9.5280E-02,,14.9119,14.9171,0.0100,320.353,99.484,98.743,,,,,,,,,,,,
CalCOFI,2101RL,007,,2101_007d,17-Jan-2021 03:01:41,16-Jan-2021 19:01:41,32.51166,-118.21040,093.3 040.0,093.3,040.0,7.000,7.050,,14.8979,,14.8993,,14.8986,33.3676,,33.3734,33.3605,,33.3625,33.3680,5.7245,,5.9912,4.4934,5.7006,,6.0526,4.5174,4.5054,249.486,261.4221,196.0125,248.444,277.8847,197.0610,196.5368,0.1003,,0.5737,0.2648, ,, , ,24.7360,,24.7302,,0.7944,81.9880,,,,1.8474E+00,,8.6152E-02,,14.8968,14.8983,0.0132,320.121,99.355,98.938,,,,,,,,,,,,
CalCOFI,2101RL,007,,2101_007d,17-Jan-2021 03:01:44,16-Jan-2021 19:01:44,32.51166,-118.21038,093.3 040.0,093.3,040.0,8.000,8.057,,14.8943,,14.8938,,14.8941,33.3681,,33.3739,33.3604,,33.3624,33.3682,5.7207,,5.9872,4.4909,5.6975,,6.0493,4.5153,4.5031,249.320,261.2484,195.9024,248.310,277.7001,196.9700,196.4362,0.0933,,0.5163,0.2473, ,, , ,24.7372,,24.7313,,0.7930,82.0159,,,,1.8474E+00,,7.5300E-02,,14.8931,14.8926,0.0164,320.036,99.283,98.874,,,,,,,,,,,,
CalCOFI,2101RL,007,,2101_007d,17-Jan-2021 03:01:47,16-Jan-2021 19:01:47,32.51166,-118.21036,093.3 040.0,093.3,040.0,9.000,9.064,,14.9177,,14.9184,,14.9181,33.3681,,33.3739,33.3605,,33.3625,33.3682,5.7080,,5.9739,4.4825,5.6858,,6.0369,4.5074,4.4950,248.766,260.6684,195.5347,247.802,277.0841,196.6247,196.0797,0.0946,,0.5270,0.2506, ,, , ,24.7321,,24.7261,,0.7922,82.0343,,,,1.8474E+00,,6.8932E-02,,14.9164,14.9171,0.0197,320.545,99.108,98.720,9,,33.3653,5.953,259.67,0.758,0.247,,,,,
CalCOFI,2101RL,007,,2101_007d,17-Jan-2021 03:01:49,16-Jan-2021 19:01:49,32.51166,-118.21036,093.3 040.0,093.3,040.0,10.000,10.071,,14.8602,,14.8629,,14.8616,33.3671,,33.3729,33.3595,,33.3615,33.3672,5.7241,,5.9907,4.4931,5.6950,,6.0467,4.5136,4.5034,249.467,261.4023,195.9999,248.199,277.8636,196.8945,196.4472,0.0945,,0.5261,0.2503, ,, , ,24.7438,,24.7374,,0.7921,82.0360,,,,1.8474E+00,,6.1879E-02,,14.8587,14.8614,0.0229,319.463,99.273,98.769,,,,,,,,,,,,
CalCOFI,2101RL,007,,2101_007d,17-Jan-2021 03:01:52,16-Jan-2021 19:01:52,32.51165,-118.21036,093.3 040.0,093.3,040.0,11.000,11.078,,14.8473,,14.8479,,14.8476,33.3674,,33.3732,33.3599,,33.3619,33.3676,5.7192,,5.9856,4.4899,5.6954,,6.0471,4.5139,4.5019,249.253,261.1782,195.8579,248.218,277.6256,196.9074,196.3827,0.0898,,0.4876,0.2386, ,, , ,24.7468,,24.7409,,0.7907,82.0647,,,,1.8474E+00,,6.0591E-02,,14.8457,14.8463,0.0261,319.206,99.163,98.747,,,,,,,,,,,,
CalCOFI,2101RL,007,,2101_007d,17-Jan-2021 03:01:54,16-Jan-2021 19:01:54,32.51164,-118.21036,093.3 040.0,093.3,040.0,12.000,12.085,,14.8377,,14.8378,,14.8378,33.3670,,33.3728,33.3593,,33.3613,33.3671,5.7166,,5.9829,4.4882,5.6914,,6.0428,4.5112,4.4997,249.136,261.0558,195.7803,248.040,277.4955,196.7865,196.2834,0.0905,,0.4934,0.2403, ,, , ,24.7486,,24.7427,,0.7881,82.1168,,,,1.8474E+00,,5.4831E-02,,14.8359,14.8360,0.0293,319.066,99.097,98.656,,,,,,,,,,,,
CalCOFI,2101RL,007,,2101_007d,17-Jan-2021 03:01:57,16-Jan-2021 19:01:57,32.51163,-118.21034,093.3 040.0,093.3,040.0,13.000,13.092,,14.7734,,14.7722,,14.7728,33.3666,,33.3724,33.3595,,33.3615,33.3670,5.7169,,5.9832,4.4884,5.6891,,6.0404,4.5096,4.4990,249.146,261.0662,195.7869,247.939,277.5067,196.7178,196.2524,0.0939,,0.5212,0.2488, ,, , ,24.7622,,24.7569,,0.7954,81.9689,,,,1.8474E+00,,4.3255E-02,,14.7715,14.7703,0.0325,317.805,98.975,98.488,,,,,,,,,,,,
CalCOFI,2101RL,007,,2101_007d,17-Jan-2021 03:02:00,16-Jan-2021 19:02:00,32.51162,-118.21034,093.3 040.0,093.3,040.0,14.000,14.099,,14.6898,,14.6876,,14.6887,33.3675,,33.3733,33.3602,,33.3622,33.3678,5.6942,,5.9594,4.4733,5.6792,,6.0299,4.5029,4.4881,248.153,260.0268,195.1280,247.500,276.4024,196.4195,195.7738,0.1003,,0.5737,0.2648, ,, , ,24.7808,,24.7756,,0.7884,82.1117,,,,1.8474E+00,,3.3742E-02,,14.6877,14.6855,0.0357,316.053,98.418,98.150,,,,,,,,,,,,
CalCOFI,2101RL,007,,2101_007d,17-Jan-2021 03:02:02,16-Jan-2021 19:02:02,32.51162,-118.21034,093.3 040.0,093.3,040.0,15.000,15.106,,14.4946,,14.4933,,14.4940,33.3719,,33.3777,33.3648,,33.3668,33.3723,5.7202,,5.9867,4.4906,5.7028,,6.0549,4.5189,4.5048,249.277,261.2034,195.8738,248.519,277.6523,197.1120,196.4929,0.1217,,0.7490,0.3184, ,, , ,24.8258,,24.8206,,0.7964,81.9469,,,,1.8474E+00,,2.7309E-02,,14.4924,14.4911,0.0389,311.796,98.484,98.177,,,,,,,,,,,,
CalCOFI,2101RL,007,,2101_007d,17-Jan-2021 03:02:04,16-Jan-2021 19:02:04,32.51162,-118.21034,093.3 040.0,093.3,040.0,16.000,16.114,,14.4475,,14.4490,,14.4483,33.3735,,33.3793,33.3661,,33.3681,33.3737,5.7405,,6.0079,4.5040,5.7096,,6.0622,4.5236,4.5138,250.159,262.1266,196.4591,248.814,278.6331,197.3125,196.8858,0.1310,,0.8252,0.3416, ,, , ,24.8370,,24.8310,,0.8019,81.8337,,,,1.8474E+00,,2.9024E-02,,14.4452,14.4466,0.0420,310.755,98.741,98.208,,,,,,,,,,,,
CalCOFI,2101RL,007,,2101_007d,17-Jan-2021 03:02:11,16-Jan-2021 19:02:11,32.51160,-118.21032,093.3 040.0,093.3,040.0,17.000,17.121,,14.4325,,14.4306,,14.4316,33.3758,,33.3816,33.3680,,33.3700,33.3758,5.7329,,6.0000,4.4990,5.7037,,6.0559,4.5195,4.5093,249.824,261.7760,196.2368,248.552,278.2606,197.1344,196.6856,0.1424,,0.9186,0.3702, ,, , ,24.8421,,24.8364,,0.8075,81.7200,,,,1.8474E+00,,9.6308E-03,,14.4300,14.4281,0.0457,310.306,98.580,98.070,,,,,,,,,,,,
CalCOFI,2101RL,007,,2101_007d,17-Jan-2021 03:02:21,16-Jan-2021 19:02:21,32.51158,-118.21028,093.3 040.0,093.3,040.0,18.000,18.128,,14.3901,,14.3880,,14.3891,33.3774,,33.3832,33.3699,,33.3719,33.3776,5.7044,,5.9701,4.4801,5.6957,,6.0474,4.5141,4.4971,248.580,260.4737,195.4113,248.205,276.8773,196.8986,196.1550,0.1516,,0.9940,0.3932, ,, , ,24.8522,,24.8469,,0.8106,81.6555,,,,1.8474E+00,,-1.617E-03,,14.3875,14.3854,0.0495,309.366,98.008,97.851,,,,,,,,,,,,
CalCOFI,2101RL,007,,2101_007d,17-Jan-2021 03:02:26,16-Jan-2021 19:02:26,32.51158,-118.21028,093.3 040.0,093.3,040.0,19.000,19.135,,14.3388,,14.3385,,14.3387,33.3776,,33.3834,33.3703,,33.3723,33.3779,5.6884,,5.9534,4.4695,5.6664,,6.0163,4.4942,4.4819,247.882,259.7431,194.9482,246.924,276.1011,196.0280,195.4881,0.1638,,1.0940,0.4237, ,, , ,24.8633,,24.8577,,0.8170,81.5253,,,,1.8474E+00,,1.4799E-07,,14.3360,14.3358,0.0531,308.341,97.633,97.250,,,,,,,,,,,,
CalCOFI,2101RL,007,,2101_007d,17-Jan-2021 03:02:33,16-Jan-2021 19:02:33,32.51155,-118.21026,093.3 040.0,093.3,040.0,20.000,20.142,,14.3064,,14.3046,,14.3055,33.3788,,33.3846,33.3713,,33.3733,33.3790,5.6660,,5.9299,4.4546,5.6491,,5.9979,4.4825,4.4686,246.904,258.7193,194.2992,246.170,275.0135,195.5156,194.9074,0.1661,,1.1128,0.4294, ,, , ,24.8710,,24.8656,,0.8172,81.5224,,,,1.9307E+00,,1.0000E-12,,14.3035,14.3017,0.0564,307.632,97.185,96.888,,,,,,,,,,,,
CalCOFI,2101RL,007,,2101_007d,17-Jan-2021 03:02:37,16-Jan-2021 19:02:37,32.51154,-118.21026,093.3 040.0,093.3,040.0,21.000,21.149,,14.2740,,14.2732,,14.2736,33.3788,,33.3846,33.3714,,33.3734,33.3790,5.6234,,5.8854,4.4264,5.6153,,5.9620,4.4595,4.4430,245.044,256.7723,193.0650,244.694,272.9452,194.5124,193.7887,0.1794,,1.2218,0.4627, ,, , ,24.8778,,24.8723,,0.8229,81.4062,,,,1.9479E+00,,1.0000E-12,,14.2710,14.2702,0.0596,307.011,96.391,96.247,21,,33.3718,5.787,252.42,0.192,0.189,,,,,
CalCOFI,2101RL,007,,2101_007d,17-Jan-2021 03:02:41,16-Jan-2021 19:02:41,32.51153,-118.21025,093.3 040.0,093.3,040.0,22.000,22.156,,14.1964,,14.1906,,14.1935,33.3785,,33.3843,33.3714,,33.3734,33.3789,5.5845,,5.8446,4.4006,5.5680,,5.9118,4.4274,4.4140,243.344,254.9927,191.9370,242.629,271.0547,193.1090,192.5230,0.1873,,1.2866,0.4825, ,, , ,24.8939,,24.8896,,0.8223,81.4191,,,,2.0898E+00,,1.0000E-12,,14.1932,14.1875,0.0627,305.510,95.574,95.278,,,,,,,,,,,,
CalCOFI,2101RL,007,,2101_007d,17-Jan-2021 03:02:47,16-Jan-2021 19:02:47,32.51150,-118.21024,093.3 040.0,093.3,040.0,23.000,23.164,,14.1089,,14.1225,,14.1157,33.3786,,33.3844,33.3706,,33.3726,33.3785,5.5461,,5.8044,4.3751,5.5360,,5.8778,4.4056,4.3904,241.669,253.2393,190.8255,241.231,269.1921,192.1589,191.4922,0.1827,,1.2489,0.4710, ,, , ,24.9123,,24.9033,,0.8181,81.5026,,,,2.3415E+00,,1.0000E-12,,14.1056,14.1192,0.0660,303.782,94.750,94.598,,,,,,,,,,,,
CalCOFI,2101RL,007,,2101_007d,17-Jan-2021 03:02:49,16-Jan-2021 19:02:49,32.51148,-118.21024,093.3 040.0,093.3,040.0,24.000,24.171,,14.1009,,14.1014,,14.1012,33.3792,,33.3850,33.3718,,33.3738,33.3794,5.5608,,5.8198,4.3848,5.5400,,5.8820,4.4083,4.3966,242.310,253.9103,191.2508,241.403,269.9049,192.2758,191.7633,0.1864,,1.2792,0.4802, ,, , ,24.9145,,24.9087,,0.8228,81.4078,,,,1.8657E+00,,1.0000E-12,,14.0975,14.0980,0.0690,303.606,94.986,94.627,,,,,,,,,,,,
CalCOFI,2101RL,007,,2101_007d,17-Jan-2021 03:02:52,16-Jan-2021 19:02:52,32.51147,-118.21023,093.3 040.0,093.3,040.0,25.000,25.178,,14.0976,,14.0980,,14.0978,33.3799,,33.3857,33.3724,,33.3744,33.3801,5.5527,,5.8114,4.3795,5.5241,,5.8651,4.3975,4.3885,241.953,253.5366,191.0140,240.710,269.5079,191.8048,191.4094,0.1935,,1.3374,0.4980, ,, , ,24.9157,,24.9099,,0.8343,81.1763,,,,1.8474E+00,,1.0000E-12,,14.0940,14.0945,0.0721,303.512,94.840,94.349,,,,,,,,,,,,
CalCOFI,2101RL,007,,2101_007d,17-Jan-2021 03:02:56,16-Jan-2021 19:02:56,32.51146,-118.21022,093.3 040.0,093.3,040.0,26.000,26.185,,14.0747,,14.0746,,14.0747,33.3806,,33.3864,33.3733,,33.3753,33.3809,5.5283,,5.7858,4.3633,5.5090,,5.8491,4.3873,4.3753,240.892,252.4259,190.3099,240.053,268.3281,191.3583,190.8341,0.1935,,1.3374,0.4980, ,, , ,24.9210,,24.9155,,0.8249,81.3661,,,,1.8474E+00,,1.0000E-12,,14.0710,14.0708,0.0752,303.036,94.381,94.048,,,,,,,,,,,,
CalCOFI,2101RL,007,,2101_007d,17-Jan-2021 03:02:59,16-Jan-2021 19:02:59,32.51146,-118.21020,093.3 040.0,093.3,040.0,27.000,27.192,,14.0473,,14.0445,,14.0459,33.3814,,33.3872,33.3736,,33.3756,33.3814,5.5209,,5.7781,4.3584,5.4978,,5.8372,4.3797,4.3691,240.566,252.0847,190.0936,239.560,267.9656,191.0232,190.5584,0.1922,,1.3267,0.4947, ,, , ,24.9274,,24.9219,,0.8256,81.3500,,,,1.8474E+00,,1.0000E-12,,14.0435,14.0407,0.0782,302.462,94.202,93.798,,,,,,,,,,,,
CalCOFI,2101RL,007,,2101_007d,17-Jan-2021 03:03:01,16-Jan-2021 19:03:01,32.51146,-118.21020,093.3 040.0,093.3,040.0,28.000,28.200,,14.0388,,14.0410,,14.0399,33.3814,,33.3872,33.3739,,33.3759,33.3816,5.5030,,5.7593,4.3465,5.4807,,5.8191,4.3681,4.3573,239.786,251.2682,189.5760,238.817,267.0982,190.5182,190.0471,0.1942,,1.3431,0.4997, ,, , ,24.9292,,24.9230,,0.8259,81.3440,,,,1.8474E+00,,1.0000E-12,,14.0348,14.0370,0.0813,302.317,93.881,93.501,,,,,,,,,,,,
CalCOFI,2101RL,007,,2101_007d,17-Jan-2021 03:03:04,16-Jan-2021 19:03:04,32.51146,-118.21020,093.3 040.0,093.3,040.0,29.000,29.207,,13.9982,,14.0006,,13.9994,33.3813,,33.3871,33.3738,,33.3758,33.3815,5.4984,,5.7545,4.3435,5.4757,,5.8137,4.3647,4.3541,239.586,251.0588,189.4433,238.596,266.8758,190.3681,189.9057,0.1908,,1.3152,0.4912, ,, , ,24.9376,,24.9313,,0.8260,81.3429,,,,1.8474E+00,,1.0000E-12,,13.9940,13.9964,0.0843,301.547,93.726,93.338,,,,,,,,,,,,
CalCOFI,2101RL,007,,2101_007d,17-Jan-2021 03:03:07,16-Jan-2021 19:03:07,32.51146,-118.21018,093.3 040.0,093.3,040.0,30.000,30.214,,13.9743,,13.9702,,13.9723,33.3815,,33.3873,33.3742,,33.3762,33.3818,5.4585,,5.7128,4.3170,5.4648,,5.8022,4.3573,4.3372,237.845,249.2363,188.2881,238.122,264.9398,190.0459,189.1670,0.1921,,1.3259,0.4945, ,, , ,24.9427,,24.9379,,0.8430,81.0030,,,,1.8474E+00,,1.0000E-12,,13.9701,13.9659,0.0873,301.083,93.001,93.096,,,,,,,,,,,,
CalCOFI,2101RL,007,,2101_007d,17-Jan-2021 03:03:10,16-Jan-2021 19:03:10,32.51146,-118.21018,093.3 040.0,093.3,040.0,31.000,31.221,,13.9090,,13.9049,,13.9070,33.3822,,33.3880,33.3749,,33.3769,33.3825,5.4432,,5.6968,4.3068,5.4513,,5.7878,4.3481,4.3275,237.173,248.5329,187.8422,237.526,264.1925,189.6409,188.7416,0.1890,,1.3005,0.4867, ,, , ,24.9568,,24.9520,,0.8250,81.3639,,,,1.8474E+00,,1.0000E-12,,13.9046,13.9005,0.0904,299.769,92.617,92.742,,,,,,,,,,,,
CalCOFI,2101RL,007,,2101_007d,17-Jan-2021 03:03:12,16-Jan-2021 19:03:12,32.51144,-118.21016,093.3 040.0,093.3,040.0,32.000,32.228,,13.8747,,13.8738,,13.8743,33.3829,,33.3887,33.3754,,33.3774,33.3831,5.4356,,5.6888,4.3018,5.4204,,5.7550,4.3271,4.3145,236.843,248.1875,187.6232,236.179,263.8255,188.7254,188.1743,0.1883,,1.2947,0.4850, ,, , ,24.9645,,24.9588,,0.8267,81.3276,,,,1.8474E+00,,1.0000E-12,,13.8702,13.8693,0.0934,299.065,92.425,92.159,,,,,,,,,,,,
CalCOFI,2101RL,007,,2101_007d,17-Jan-2021 03:03:14,16-Jan-2021 19:03:14,32.51144,-118.21015,093.3 040.0,093.3,040.0,33.000,33.236,,13.8328,,13.8319,,13.8324,33.3833,,33.3891,33.3757,,33.3777,33.3834,5.4153,,5.6676,4.2883,5.4064,,5.7401,4.3176,4.3030,235.954,247.2568,187.0333,235.570,262.8369,188.3115,187.6724,0.1857,,1.2734,0.4785, ,, , ,24.9734,,24.9677,,0.8217,81.4306,,,,1.8474E+00,,1.0000E-12,,13.8281,13.8272,0.0964,298.240,92.000,91.844,,,,,,,,,,,,
CalCOFI,2101RL,007,,2101_007d,17-Jan-2021 03:03:16,16-Jan-2021 19:03:16,32.51144,-118.21014,093.3 040.0,093.3,040.0,34.000,34.243,,13.8061,,13.8066,,13.8064,33.3830,,33.3888,33.3757,,33.3777,33.3833,5.4012,,5.6528,4.2790,5.3963,,5.7294,4.3107,4.2949,235.340,246.6141,186.6259,235.127,262.1542,188.0104,187.3182,0.1853,,1.2702,0.4775, ,, , ,24.9787,,24.9730,,0.8184,81.4978,,,,1.8474E+00,,1.0000E-12,,13.8013,13.8018,0.0994,297.760,91.711,91.625,,,,,,,,,,,,
CalCOFI,2101RL,007,,2101_007d,17-Jan-2021 03:03:19,16-Jan-2021 19:03:19,32.51144,-118.21014,093.3 040.0,093.3,040.0,35.000,35.250,,13.7760,,13.7721,,13.7741,33.3830,,33.3888,33.3756,,33.3776,33.3832,5.3644,,5.6143,4.2546,5.3658,,5.6970,4.2900,4.2723,233.735,244.9340,185.5609,233.798,260.3694,187.1072,186.3341,0.1784,,1.2136,0.4602, ,, , ,24.9849,,24.9800,,0.8216,81.4324,,,,1.8474E+00,,1.0000E-12,,13.7711,13.7671,0.1024,297.200,91.030,91.043,,,,,,,,,,,,
CalCOFI,2101RL,007,,2101_007d,17-Jan-2021 03:03:21,16-Jan-2021 19:03:21,32.51144,-118.21013,093.3 040.0,093.3,040.0,36.000,36.257,,13.7259,,13.7255,,13.7257,33.3820,,33.3878,33.3744,,33.3764,33.3821,5.3557,,5.6052,4.2488,5.3482,,5.6783,4.2781,4.2635,233.355,244.5362,185.3087,233.027,259.9468,186.5832,185.9460,0.1779,,1.2095,0.4589, ,, , ,24.9944,,24.9886,,0.8131,81.6060,,,,1.8474E+00,,1.0000E-12,,13.7209,13.7204,0.1054,296.316,90.790,90.657,,,,,,,,,,,,
CalCOFI,2101RL,007,,2101_007d,17-Jan-2021 03:03:23,16-Jan-2021 19:03:23,32.51144,-118.21012,093.3 040.0,093.3,040.0,37.000,37.265,,13.7052,,13.7054,,13.7053,33.3818,,33.3876,33.3743,,33.3763,33.3820,5.3537,,5.6031,4.2475,5.3359,,5.6653,4.2697,4.2586,233.264,244.4410,185.2483,232.489,259.8456,186.2176,185.7330,0.1745,,1.1817,0.4504, ,, , ,24.9985,,24.9927,,0.8116,81.6366,,,,1.8474E+00,,1.0000E-12,,13.7000,13.7002,0.1084,295.955,90.716,90.411,,,,,,,,,,,,
CalCOFI,2101RL,007,,2101_007d,17-Jan-2021 03:03:25,16-Jan-2021 19:03:25,32.51143,-118.21012,093.3 040.0,093.3,040.0,38.000,38.272,,13.6879,,13.6861,,13.6870,33.3834,,33.3892,33.3762,,33.3782,33.3837,5.3146,,5.5622,4.2216,5.3008,,5.6280,4.2459,4.2338,231.562,242.6593,184.1190,230.961,257.9530,185.1791,184.6491,0.1755,,1.1899,0.4529, ,, , ,25.0033,,24.9981,,0.8078,81.7133,,,,1.8474E+00,,1.0000E-12,,13.6826,13.6808,0.1113,295.525,90.024,89.783,,,,,,,,,,,,
CalCOFI,2101RL,007,,2101_007d,17-Jan-2021 03:03:27,16-Jan-2021 19:03:27,32.51142,-118.21011,093.3 040.0,093.3,040.0,39.000,39.279,,13.6270,,13.6227,,13.6249,33.3839,,33.3897,33.3765,,33.3785,33.3841,5.2297,,5.4733,4.1653,5.2466,,5.5704,4.2091,4.1872,227.857,238.7809,181.6605,228.597,253.8330,183.5724,182.6165,0.1643,,1.0981,0.4249, ,, , ,25.0162,,25.0114,,0.8053,81.7641,,,,1.8474E+00,,1.0000E-12,,13.6215,13.6172,0.1143,294.326,88.475,88.750,,,,,,,,,,,,
CalCOFI,2101RL,007,,2101_007d,17-Jan-2021 03:03:29,16-Jan-2021 19:03:29,32.51142,-118.21008,093.3 040.0,093.3,040.0,40.000,40.286,,13.5358,,13.5290,,13.5324,33.3845,,33.3903,33.3770,,33.3790,33.3847,5.1830,,5.4244,4.1343,5.1879,,5.5081,4.1692,4.1518,225.818,236.6465,180.3075,226.034,251.5656,181.8306,181.0691,0.1609,,1.0702,0.4164, ,, , ,25.0352,,25.0308,,0.7981,81.9133,,,,1.8474E+00,,1.0000E-12,,13.5302,13.5234,0.1173,292.535,87.522,87.589,,,,,,,,,,,,
CalCOFI,2101RL,007,,2101_007d,17-Jan-2021 03:03:31,16-Jan-2021 19:03:31,32.51141,-118.21008,093.3 040.0,093.3,040.0,41.000,41.294,,13.4050,,13.3947,,13.3999,33.3845,,33.3903,33.3765,,33.3785,33.3844,5.1777,,5.4189,4.1308,5.1646,,5.4833,4.1534,4.1421,225.583,236.4005,180.1516,225.011,251.3042,181.1353,180.6435,0.1523,,0.9998,0.3949, ,, , ,25.0617,,25.0577,,0.7937,82.0026,,,,1.8474E+00,,1.0000E-12,,13.3994,13.3890,0.1202,290.030,87.199,86.955,,,,,,,,,,,,
CalCOFI,2101RL,007,,2101_007d,17-Jan-2021 03:03:33,16-Jan-2021 19:03:33,32.51140,-118.21008,093.3 040.0,093.3,040.0,42.000,42.301,,13.3470,,13.3079,,13.3275,33.3832,,33.3890,33.3756,,33.3776,33.3833,5.1236,,5.3623,4.0949,5.1325,,5.4492,4.1316,4.1133,223.225,233.9321,178.5869,223.612,248.6821,180.1845,179.3857,0.1355,,0.8621,0.3529, ,, , ,25.0725,,25.0744,,0.7840,82.2017,,,,1.8474E+00,,1.0000E-12,,13.3412,13.3022,0.1231,289.034,86.186,86.262,,,,,,,,,,,,
CalCOFI,2101RL,007,,2101_007d,17-Jan-2021 03:03:35,16-Jan-2021 19:03:35,32.51140,-118.21006,093.3 040.0,093.3,040.0,43.000,43.308,,13.2686,,13.2671,,13.2679,33.3819,,33.3877,33.3741,,33.3761,33.3819,5.0956,,5.3330,4.0763,5.0975,,5.4121,4.1078,4.0921,221.999,232.6488,177.7734,222.086,247.3188,179.1474,178.4604,0.1327,,0.8392,0.3459, ,, , ,25.0872,,25.0815,,0.7795,82.2926,,,,1.8474E+00,,1.0000E-12,,13.2627,13.2612,0.1260,287.656,85.575,85.601,,,,,,,,,,,,
CalCOFI,2101RL,007,,2101_007d,17-Jan-2021 03:03:36,16-Jan-2021 19:03:36,32.51140,-118.21006,093.3 040.0,093.3,040.0,44.000,44.315,,13.1278,,13.1198,,13.1238,33.3845,,33.3903,33.3773,,33.3793,33.3848,5.0987,,5.3362,4.0784,5.1007,,5.4155,4.1100,4.0942,222.129,232.7848,177.8597,222.214,247.4633,179.2344,178.5471,0.1174,,0.7138,0.3076, ,, , ,25.1173,,25.1134,,0.7713,82.4631,,,,1.8474E+00,,1.0000E-12,,13.1218,13.1138,0.1289,284.801,85.381,85.396,,,,,,,,,,,,
CalCOFI,2101RL,007,,2101_007d,17-Jan-2021 03:03:38,16-Jan-2021 19:03:38,32.51140,-118.21004,093.3 040.0,093.3,040.0,45.000,45.323,,13.1159,,13.1190,,13.1175,33.3849,,33.3907,33.3768,,33.3788,33.3848,5.0722,,5.3085,4.0608,5.0592,,5.3714,4.0818,4.0713,220.974,231.5758,177.0933,220.407,246.1790,178.0063,177.5498,0.1170,,0.7105,0.3066, ,, , ,25.1201,,25.1132,,0.7715,82.4583,,,,1.8474E+00,,1.0000E-12,,13.1098,13.1129,0.1318,284.567,84.917,84.700,,,,,,,,,,,,
CalCOFI,2101RL,007,,2101_007d,17-Jan-2021 03:03:40,16-Jan-2021 19:03:40,32.51140,-118.21004,093.3 040.0,093.3,040.0,46.000,46.330,,13.0636,,13.0626,,13.0631,33.3845,,33.3903,33.3768,,33.3788,33.3846,5.0294,,5.2637,4.0324,5.0260,,5.3361,4.0592,4.0458,219.107,229.6214,175.8544,218.960,244.1028,177.0229,176.4387,0.1115,,0.6654,0.2929, ,, , ,25.1301,,25.1244,,0.7699,82.4919,,,,1.8474E+00,,1.0000E-12,,13.0573,13.0563,0.1346,283.631,84.109,84.047,,,,,,,,,,,,
CalCOFI,2101RL,007,,2101_007d,17-Jan-2021 03:03:42,16-Jan-2021 19:03:42,32.51140,-118.21002,093.3 040.0,093.3,040.0,47.000,47.337,,12.9777,,12.9726,,12.9752,33.3809,,33.3867,33.3682,,33.3702,33.3785,5.0167,,5.2504,4.0240,5.0066,,5.3155,4.0460,4.0350,218.550,229.0383,175.4848,218.113,243.4834,176.4472,175.9660,0.1078,,0.6351,0.2836, ,, , ,25.1444,,25.1356,,0.7636,82.6219,,,,1.8474E+00,,1.0000E-12,,12.9713,12.9662,0.1375,282.293,83.746,83.563,,,,,,,,,,,,
CalCOFI,2101RL,007,,2101_007d,17-Jan-2021 03:03:45,16-Jan-2021 19:03:45,32.51140,-118.21002,093.3 040.0,093.3,040.0,48.000,48.344,,12.9078,,12.9024,,12.9051,33.3702,,33.3760,33.3609,,33.3629,33.3695,4.9360,,5.1659,3.9705,4.9428,,5.2477,4.0027,3.9866,215.036,225.3599,173.1531,215.329,239.5758,174.5551,173.8541,0.1032,,0.5974,0.2721, ,, , ,25.1499,,25.1438,,0.7569,82.7607,,,,1.8474E+00,,1.0000E-12,,12.9013,12.8960,0.1403,281.791,82.275,82.373,,,,,,,,,,,,
CalCOFI,2101RL,007,,2101_007d,17-Jan-2021 03:03:47,16-Jan-2021 19:03:47,32.51140,-118.21002,093.3 040.0,093.3,040.0,49.000,49.352,,12.7887,,12.7827,,12.7857,33.3549,,33.3607,33.3463,,33.3483,33.3545,4.8849,,5.1124,3.9366,4.9054,,5.2080,3.9773,3.9570,212.803,223.0224,171.6714,213.698,237.0927,173.4467,172.5591,0.0966,,0.5434,0.2556, ,, , ,25.1615,,25.1560,,0.7524,82.8527,,,,1.8474E+00,,1.0000E-12,,12.7821,12.7762,0.1432,280.704,81.214,81.541,,,,,,,,,,,,
CalCOFI,2101RL,007,,2101_007d,17-Jan-2021 03:03:48,16-Jan-2021 19:03:48,32.51140,-118.21002,093.3 040.0,093.3,040.0,50.000,50.359,,12.7392,,12.7405,,12.7399,33.3535,,33.3593,33.3464,,33.3484,33.3539,4.7349,,4.9554,3.8371,4.7867,,5.0820,3.8967,3.8669,206.271,216.1847,167.3370,208.527,229.8290,169.9323,168.6347,0.0970,,0.5466,0.2566, ,, , ,25.1701,,25.1643,,0.7483,82.9373,,,,1.8474E+00,,1.0000E-12,,12.7326,12.7338,0.1460,279.911,78.640,79.499,50,,33.3526,4.829,210.66,-0.004,0.242,,,,,
CalCOFI,2101RL,007,,2101_007d,17-Jan-2021 03:03:50,16-Jan-2021 19:03:50,32.51140,-118.21002,093.3 040.0,093.3,040.0,51.000,51.366,,12.5297,,12.5168,,12.5233,33.3383,,33.3441,33.3304,,33.3324,33.3383,4.6716,,4.8892,3.7951,4.6975,,4.9872,3.8361,3.8156,203.506,213.2903,165.5023,204.634,226.7543,167.2865,166.3944,0.0858,,0.4549,0.2286, ,, , ,25.1990,,25.1954,,0.7415,83.0791,,,,1.8474E+00,,1.0000E-12,,12.5230,12.5101,0.1488,277.167,77.244,77.648,,,,,,,,,,,,
CalCOFI,2101RL,007,,2101_007d,17-Jan-2021 03:03:51,16-Jan-2021 19:03:51,32.51140,-118.21002,093.3 040.0,093.3,040.0,52.000,52.374,,12.3214,,12.3185,,12.3200,33.3485,,33.3543,33.3416,,33.3436,33.3490,4.6791,,4.8970,3.8001,4.6932,,4.9826,3.8332,3.8167,203.823,213.6221,165.7127,204.436,227.1068,167.1520,166.4324,0.0752,,0.3680,0.2021, ,, , ,25.2469,,25.2421,,0.7316,83.2844,,,,1.8474E+00,,1.0000E-12,,12.3146,12.3117,0.1515,272.612,77.038,77.261,,,,,,,,,,,,